Provo, UT

3:02 AM MDT on July 24, 2017 (GMT -0600)
Provo Municipal

Weather History for KPVU - November, 2012

Change the Weather History Date:

Wednesday, November 7, 2012

  Actual Average Record
Temperature  
Mean Temperature 51 °F -  
Max Temperature 69 °F 48 °F 69 °F (1999)
Min Temperature 33 °F 30 °F 21 °F (2015)
Degree Days  
Heating Degree Days 14    
Growing Degree Days 1 (Base 50)    
Moisture  
Dew Point 30 °F    
Average Humidity 54    
Maximum Humidity 81    
Minimum Humidity 23    
Precipitation  
Precipitation 0.00 in - - ()
Sea Level Pressure  
Sea Level Pressure 30.07 in    
Wind  
Wind Speed 4 mph (SE)    
Max Wind Speed 10 mph    
Max Gust Speed -    
Visibility 12 miles    
Events      
Averages and records for this station are not official NWS values.
T = Trace of Precipitation, MM = Missing Value Source: NWS Daily Summary

Daily Weather History Graph

Daily Weather History Graph

Search for Another Location

Airport or City:

Trip Planner

Search our weather history database for the weather conditions in past years. The results will help you decide how hot, cold, wet, or windy it might be!

Date:

Astronomy

Nov. 07, 2012 Rise Set
Actual Time 7:03 AM MST 5:16 PM MST
Civil Twilight 6:35 AM MST 5:45 PM MST
Nautical Twilight 6:02 AM MST 6:17 PM MST
Astronomical Twilight 5:30 AM MST 6:49 PM MST
Moon 12:00 AM MST (11/7) 1:28 PM MST (11/7)
Length of Visible Light 11h 10m
Length of Day
10h 12m
Last Quarter, 42% of the Moon is Illuminated
Nov 7
Last Quarter
Nov 13
New
Nov 20
First Quarter
Nov 28
Full
Dec 6
Last Quarter

Hourly Weather History & Observations

Time (MST) Temp. Windchill Dew Point Humidity Pressure Visibility Wind Dir Wind Speed Gust Speed Precip Events Conditions
12:15 AM 37.4 °F 33.8 °F 32.0 °F 81% 30.23 in 10.0 mi SSE 4.6 mph - N/A   Clear
12:35 AM 44.6 °F 39.2 °F 28.4 °F 53% 30.23 in 10.0 mi ESE 10.4 mph - N/A   Clear
12:55 AM 41.0 °F 35.8 °F 28.4 °F 61% 30.23 in 10.0 mi East 8.1 mph - N/A   Clear
1:15 AM 37.4 °F - 30.2 °F 75% 30.22 in 10.0 mi Calm Calm - N/A   Clear
2:15 AM 35.6 °F 32.8 °F 28.4 °F 75% 30.21 in 10.0 mi South 3.5 mph - N/A   Clear
4:15 AM 35.6 °F 31.7 °F 28.4 °F 75% 30.19 in 10.0 mi East 4.6 mph - N/A   Clear
4:35 AM 33.8 °F - 28.4 °F 81% 30.19 in 10.0 mi Calm Calm - N/A   Clear
4:55 AM 35.6 °F - 28.4 °F 75% 30.19 in 10.0 mi Calm Calm - N/A   Clear
5:15 AM 37.4 °F 34.9 °F 26.6 °F 65% 30.19 in 10.0 mi South 3.5 mph - N/A   Clear
5:35 AM 39.2 °F 34.2 °F 26.6 °F 61% 30.18 in 10.0 mi SE 6.9 mph - N/A   Clear
5:55 AM 37.4 °F - 26.6 °F 65% 30.17 in 10.0 mi Calm Calm - N/A   Clear
6:15 AM 35.6 °F 32.8 °F 24.8 °F 65% 30.17 in 10.0 mi SSW 3.5 mph - N/A   Clear
6:47 AM 37.4 °F 31.4 °F 28.4 °F 70% 30.17 in 15.0 mi ESE 8.1 mph - N/A   Clear
7:55 AM 42.8 °F - 32.0 °F 66% 30.18 in 15.0 mi Calm Calm - N/A   Clear
9:47 AM 51.8 °F - 30.2 °F 44% 30.15 in 15.0 mi East 8.1 mph - N/A   Clear
10:55 AM 55.4 °F - 35.6 °F 47% 30.13 in 15.0 mi SSW 4.6 mph - N/A   Clear
11:49 AM 57.2 °F - 33.8 °F 41% 30.09 in 15.0 mi Calm Calm - N/A   Clear
12:54 PM 62.6 °F - 32.0 °F 32% 30.05 in 15.0 mi West 4.6 mph - N/A   Clear
1:55 PM 68.0 °F - 33.8 °F 28% 30.03 in 15.0 mi Calm Calm - N/A   Clear
2:55 PM 68.0 °F - 35.6 °F 30% 30.01 in 15.0 mi Calm Calm - N/A   Clear
3:47 PM 69.8 °F - 30.2 °F 23% 29.99 in 15.0 mi Calm Calm - N/A   Clear
4:47 PM 68.0 °F - 30.2 °F 24% 29.99 in 15.0 mi Calm Calm - N/A   Clear
5:51 PM 57.2 °F - 28.4 °F 33% 29.97 in 15.0 mi Calm Calm - N/A   Clear
6:50 PM 48.2 °F - 35.6 °F 62% 29.97 in 15.0 mi Calm Calm - N/A   Clear
7:58 PM 48.2 °F - 33.8 °F 58% 29.95 in 15.0 mi Calm Calm - N/A   Clear
8:47 PM 46.4 °F - 30.2 °F 53% 29.96 in 15.0 mi Calm Calm - N/A   Clear
9:15 PM 48.2 °F - 30.2 °F 50% 29.96 in 10.0 mi Calm Calm - N/A   Clear
9:35 PM 44.6 °F 42.2 °F 28.4 °F 53% 29.96 in 10.0 mi South 4.6 mph - N/A   Clear
9:55 PM 42.8 °F 37.5 °F 28.4 °F 57% 29.96 in 10.0 mi ESE 9.2 mph - N/A   Clear
10:15 PM 51.8 °F - 30.2 °F 44% 29.95 in 10.0 mi ESE 8.1 mph - N/A   Clear
10:35 PM 50.0 °F - 30.2 °F 47% 29.95 in 10.0 mi SE 8.1 mph - N/A   Clear
10:55 PM 46.4 °F 42.4 °F 30.2 °F 53% 29.95 in 10.0 mi SSE 8.1 mph - N/A   Clear
11:15 PM 48.2 °F - 30.2 °F 50% 29.95 in 10.0 mi SE 6.9 mph - N/A   Clear
11:35 PM 46.4 °F 44.3 °F 28.4 °F 50% 29.94 in 10.0 mi East 4.6 mph - N/A   Clear
11:55 PM 44.6 °F - 28.4 °F 53% 29.94 in 10.0 mi Calm Calm - N/A   Clear